Flag for Canada Weather past 2 weeks in Greater Sudbury, Ontario, Canada

Now
1 °F

Light snow. Passing clouds.


Feels Like: -18 °F
Forecast: 4 / 18 °F
Wind: 16 mph from Northeast

Location: Sudbury

Current Time: Mar 27, 2015 at 8:04:23 AM

Latest Report: Mar 27, 2015 at 7:00 AM


Visibility: 15 mi

Pressure: 30.06 "Hg

Humidity: 78%

Dew point: -4 °F

Location of Greater SudburyLocation

Historic Weather in Greater Sudbury — Graph

°F

Greater Sudbury temperature yesterday

Maximum temperature yesterday: 34 °F (at 1:00 AM)
Minimum temperature yesterday: 16 °F (at 11:00 PM)
Average temperature yesterday: 29 °F

Past Weeks' High & Low Weather Summary

 TemperatureHumidityPressure
High43 °F (Mar 16, 6:00 PM)100% (Mar 14, 1:00 PM)30.69 "Hg (Mar 14, 1:00 PM)
Low-8 °F (Mar 23, 6:00 AM)21% (Mar 18, 4:00 PM)29.67 "Hg (Mar 14, 4:00 PM)
Average22 °F65%30.10 "Hg
* Reported Mar 12 7:00 AM — Mar 27 7:00 AM, Greater Sudbury, Weather by CustomWeather, © 2015

Note: Actual official high and low records may vary slightly from our data, if they occured in-between our weather recording intervals... More about our weather records

Advertising

Greater Sudbury weather history for previous 24 hours

 ConditionsComfort  
Time TempWeatherWind HumidityBarometerVisibility
7:00 AM
Fri, Mar 27
1 °FLight snow. Passing clouds.16 mph78%30.06 "Hg15 mi
6:00 AM3 °FLight snow. Overcast.14 mph78%30.03 "Hg10 mi
5:00 AM5 °FLight snow. Overcast.15 mph78%30.01 "Hg12 mi
4:00 AM7 °FMostly cloudy.17 mph78%29.98 "Hg12 mi
3:00 AM9 °FLight snow. Mostly cloudy.14 mph78%29.97 "Hg10 mi
2:00 AM10 °FLight snow. Overcast.16 mph72%29.96 "Hg12 mi
1:00 AM12 °FLight snow. Mostly cloudy.17 mph79%29.95 "Hg12 mi
12:00 AM14 °FLight snow. Mostly cloudy.15 mph79%29.94 "Hg4 mi
11:00 PM
Thu, Mar 26
16 °FLight snow. Ice fog.16 mph86%29.92 "Hg4 mi
10:00 PM18 °FLight snow. Ice fog.21 mph79%29.90 "Hg2 mi
9:00 PM18 °FLight snow. Ice fog.22 mph86%29.88 "Hg2 mi
8:00 PM21 °FLight snow. Ice fog.16 mph86%29.86 "Hg2 mi
7:00 PM25 °FLight snow. Ice fog.13 mph86%29.82 "Hg2 mi
6:00 PM27 °FLight snow. Ice fog.14 mph86%29.79 "Hg2 mi
5:00 PM30 °FLight snow. More clouds than sun.6 mph86%29.76 "Hg3 mi
4:00 PM32 °FLight snow. Overcast.7 mph75%29.76 "Hg5 mi
3:00 PM32 °FLight snow. Overcast.5 mph75%29.76 "Hg12 mi
2:00 PM32 °FLight snow. Overcast.2 mph69%29.77 "Hg15 mi
1:00 PM32 °FLight snow. Mostly cloudy.2 mph69%29.78 "Hg20 mi
12:00 PM30 °FMostly cloudy.5 mph80%29.79 "Hg20 mi
11:00 AM32 °FMostly cloudy.5 mph69%29.80 "Hg20 mi
10:00 AM30 °FBroken clouds.5 mph75%29.80 "Hg20 mi
9:00 AM28 °FBroken clouds.6 mph80%29.78 "Hg20 mi
8:00 AM30 °FPartly cloudy.5 mph80%29.79 "Hg20 mi
Weather by CustomWeather, © 2015

See weather overviewHow to use our weather pages